Mackinac Island, MI

12:38 PM EST on November 23, 2017 (GMT -0500)
Mackinac Island

Weather History for KMCD - October, 2012

Change the Weather History Date:

Friday, October 26, 2012

  Actual Average Record
Temperature  
Mean Temperature 44 °F -  
Max Temperature 48 °F 47 °F 67 °F (1989)
Min Temperature 40 °F 37 °F 25 °F (1976)
Degree Days  
Heating Degree Days 21    
Moisture  
Dew Point 33 °F    
Average Humidity 70    
Maximum Humidity 94    
Minimum Humidity 52    
Precipitation  
Precipitation 0.00 in - - ()
Sea Level Pressure  
Sea Level Pressure 30.10 in    
Wind  
Wind Speed 15 mph (West)    
Max Wind Speed 21 mph    
Max Gust Speed 32 mph    
Visibility 9 miles    
Events Rain    
Averages and records for this station are not official NWS values.
T = Trace of Precipitation, MM = Missing Value Source: NWS Daily Summary

Daily Weather History Graph

Daily Weather History Graph

Search for Another Location

Airport or City:

Trip Planner

Search our weather history database for the weather conditions in past years. The results will help you decide how hot, cold, wet, or windy it might be!

Date:

Astronomy

Oct. 26, 2012 Rise Set
Actual Time 8:11 AM EDT 6:33 PM EDT
Civil Twilight 7:40 AM EDT 7:03 PM EDT
Nautical Twilight 7:05 AM EDT 7:38 PM EDT
Astronomical Twilight 6:30 AM EDT 8:13 PM EDT
Moon 4:55 PM EDT (10/26) 4:58 AM EDT (10/26)
Length of Visible Light 11h 23m
Length of Day
10h 22m
Waxing Gibbous, 91% of the Moon is Illuminated
Oct 26
Waxing Gibbous
Oct 29
Full
Nov 6
Last Quarter
Nov 13
New
Nov 20
First Quarter

Hourly Weather History & Observations

Time (EDT) Temp. Windchill Dew Point Humidity Pressure Visibility Wind Dir Wind Speed Gust Speed Precip Events Conditions
12:14 AM 48.2 °F - 46.6 °F 94% 29.73 in 4.0 mi WNW 15.0 mph 25.3 mph N/A Rain Heavy Rain
12:33 AM 46.9 °F - 45.3 °F 94% 29.74 in 4.0 mi WNW 15.0 mph 29.9 mph N/A   Overcast
12:54 AM 45.5 °F 39.6 °F 43.7 °F 93% 29.74 in 3.0 mi WNW 12.7 mph - N/A   Overcast
1:13 AM 45.3 °F 38.4 °F 43.3 °F 93% 29.79 in 10.0 mi West 16.1 mph 21.9 mph N/A Rain Light Rain
1:54 AM 43.7 °F 35.2 °F 41.9 °F 93% 29.83 in 2.5 mi WNW 20.7 mph 27.6 mph N/A Rain Light Rain
2:13 AM 43.7 °F 35.7 °F 41.9 °F 93% 29.84 in 5.0 mi WNW 18.4 mph 26.5 mph N/A Rain Light Rain
2:34 AM 43.7 °F 36.0 °F 41.2 °F 91% 29.86 in 10.0 mi WNW 17.3 mph 26.5 mph N/A   Overcast
2:54 AM 43.5 °F 36.4 °F 40.8 °F 90% 29.87 in 5.0 mi West 15.0 mph - N/A   Overcast
3:13 AM 42.8 °F 35.1 °F 41.0 °F 93% 29.89 in 3.0 mi WNW 16.1 mph 23.0 mph N/A Rain Light Rain
3:34 AM 42.8 °F 34.8 °F 39.7 °F 89% 29.90 in 10.0 mi WNW 17.3 mph 25.3 mph N/A   Overcast
3:54 AM 42.8 °F 34.0 °F 38.8 °F 86% 29.91 in 10.0 mi WNW 20.7 mph 32.2 mph N/A   Overcast
4:13 AM 42.4 °F 34.7 °F 38.5 °F 86% 29.92 in 10.0 mi West 16.1 mph 23.0 mph N/A   Overcast
4:34 AM 41.9 °F 33.7 °F 38.3 °F 87% 29.94 in 10.0 mi West 17.3 mph 24.2 mph N/A   Overcast
4:54 AM 41.5 °F 33.8 °F 37.6 °F 86% 29.95 in 10.0 mi West 15.0 mph 24.2 mph N/A   Overcast
5:13 AM 41.5 °F 32.6 °F 36.5 °F 82% 29.95 in 10.0 mi WNW 19.6 mph 23.0 mph N/A   Mostly Cloudy
5:34 AM 41.5 °F 34.2 °F 36.5 °F 82% 29.97 in 10.0 mi West 13.8 mph 23.0 mph N/A   Mostly Cloudy
5:54 AM 41.9 °F 34.0 °F 35.8 °F 79% 29.98 in 10.0 mi West 16.1 mph 23.0 mph N/A   Overcast
6:13 AM 41.5 °F 34.2 °F 34.9 °F 77% 30.00 in 10.0 mi West 13.8 mph 24.2 mph N/A   Overcast
6:34 AM 41.7 °F 34.1 °F 35.2 °F 78% 30.01 in 10.0 mi West 15.0 mph 23.0 mph N/A   Overcast
6:53 AM 41.4 °F 32.4 °F 34.7 °F 77% 30.02 in 10.0 mi West 19.6 mph 25.3 mph N/A   Overcast
7:13 AM 41.0 °F 32.8 °F 34.0 °F 76% 30.03 in 10.0 mi West 16.1 mph 21.9 mph N/A   Overcast
7:34 AM 41.0 °F 32.8 °F 33.8 °F 76% 30.04 in 10.0 mi West 16.1 mph 25.3 mph N/A   Overcast
7:53 AM 41.0 °F 33.5 °F 33.4 °F 74% 30.05 in 10.0 mi West 13.8 mph 21.9 mph N/A   Overcast
8:13 AM 41.0 °F 32.5 °F 32.2 °F 71% 30.06 in 10.0 mi West 17.3 mph 23.0 mph N/A   Overcast
8:34 AM 41.0 °F 32.5 °F 32.0 °F 70% 30.08 in 10.0 mi West 17.3 mph 20.7 mph N/A   Overcast
8:53 AM 41.0 °F 33.5 °F 31.1 °F 68% 30.09 in 10.0 mi West 13.8 mph 17.3 mph N/A   Overcast
9:53 AM 41.5 °F 34.6 °F 29.8 °F 63% 30.12 in 10.0 mi West 12.7 mph 18.4 mph N/A   Overcast
10:14 AM 41.5 °F 34.2 °F 30.0 °F 64% 30.12 in 10.0 mi West 13.8 mph 19.6 mph N/A   Overcast
10:33 AM 41.9 °F 34.3 °F 29.3 °F 61% 30.14 in 10.0 mi West 15.0 mph 23.0 mph N/A   Overcast
10:53 AM 42.3 °F 34.4 °F 29.3 °F 60% 30.15 in 10.0 mi West 16.1 mph 21.9 mph N/A   Overcast
11:14 AM 42.1 °F 34.2 °F 28.2 °F 58% 30.16 in 10.0 mi West 16.1 mph 23.0 mph N/A   Overcast
11:33 AM 42.6 °F 34.9 °F 28.4 °F 57% 30.16 in 10.0 mi West 16.1 mph 23.0 mph N/A   Overcast
11:53 AM 43.3 °F 35.5 °F 29.3 °F 58% 30.17 in 10.0 mi West 17.3 mph 25.3 mph N/A   Overcast
12:14 PM 42.6 °F 34.6 °F 29.3 °F 59% 30.17 in 10.0 mi West 17.3 mph 21.9 mph N/A   Overcast
12:33 PM 43.2 °F 35.0 °F 29.7 °F 59% 30.18 in 10.0 mi West 18.4 mph 27.6 mph N/A   Mostly Cloudy
12:54 PM 44.2 °F 35.9 °F 29.7 °F 57% 30.18 in 10.0 mi West 20.7 mph 26.5 mph N/A   Mostly Cloudy
1:14 PM 43.2 °F 34.7 °F 29.7 °F 59% 30.19 in 10.0 mi West 19.6 mph 27.6 mph N/A   Mostly Cloudy
1:33 PM 44.1 °F 36.2 °F 29.8 °F 57% 30.19 in 10.0 mi West 18.4 mph 21.9 mph N/A   Scattered Clouds
1:54 PM 44.8 °F 38.7 °F 29.1 °F 54% 30.19 in 10.0 mi West 12.7 mph 23.0 mph N/A   Mostly Cloudy
2:14 PM 45.3 °F 37.6 °F 29.7 °F 54% 30.19 in 10.0 mi West 19.6 mph 23.0 mph N/A   Scattered Clouds
2:33 PM 45.0 °F 38.2 °F 28.8 °F 53% 30.18 in 10.0 mi West 15.0 mph 23.0 mph N/A   Scattered Clouds
2:54 PM 45.1 °F 37.9 °F 28.4 °F 52% 30.18 in 10.0 mi West 17.3 mph 24.2 mph N/A   Scattered Clouds
3:33 PM 44.6 °F 36.9 °F 28.8 °F 54% 30.19 in 10.0 mi West 18.4 mph 25.3 mph N/A   Clear
3:54 PM 43.2 °F 37.9 °F 29.5 °F 59% 30.19 in 10.0 mi WSW 9.2 mph 23.0 mph N/A   Clear
4:14 PM 44.6 °F 37.8 °F 30.2 °F 57% 30.20 in 10.0 mi West 15.0 mph 18.4 mph N/A   Scattered Clouds
4:33 PM 44.4 °F 39.0 °F 29.8 °F 57% 30.20 in 10.0 mi WSW 10.4 mph 16.1 mph N/A   Clear
4:54 PM 43.9 °F 37.9 °F 29.7 °F 57% 30.21 in 10.0 mi WSW 11.5 mph 16.1 mph N/A   Clear
5:13 PM 43.5 °F 38.3 °F 30.4 °F 60% 30.21 in 10.0 mi WSW 9.2 mph - N/A   Scattered Clouds
5:33 PM 43.0 °F 38.8 °F 31.8 °F 65% 30.22 in 10.0 mi WSW 6.9 mph - N/A   Mostly Cloudy
5:54 PM 42.8 °F 38.0 °F 31.1 °F 63% 30.22 in 10.0 mi WSW 8.1 mph - N/A   Overcast
6:14 PM 42.6 °F 38.4 °F 31.5 °F 65% 30.22 in 10.0 mi WSW 6.9 mph - N/A   Mostly Cloudy
6:33 PM 41.9 °F 37.5 °F 31.1 °F 66% 30.23 in 10.0 mi WSW 6.9 mph - N/A   Scattered Clouds
6:54 PM 41.7 °F 36.7 °F 31.5 °F 67% 30.24 in 10.0 mi WSW 8.1 mph - N/A   Scattered Clouds
7:14 PM 41.4 °F 36.2 °F 32.0 °F 69% 30.24 in 10.0 mi WSW 8.1 mph - N/A   Clear
7:33 PM 41.9 °F 36.9 °F 31.6 °F 67% 30.25 in 10.0 mi WSW 8.1 mph - N/A   Clear
7:54 PM 41.7 °F 37.3 °F 31.8 °F 68% 30.24 in 10.0 mi West 6.9 mph - N/A   Clear
8:13 PM 41.9 °F 37.5 °F 31.3 °F 66% 30.25 in 10.0 mi West 6.9 mph - N/A   Clear
8:33 PM 41.9 °F 38.2 °F 31.8 °F 67% 30.25 in 10.0 mi West 5.8 mph - N/A   Clear
8:54 PM 41.9 °F 37.5 °F 31.5 °F 66% 30.25 in 10.0 mi West 6.9 mph - N/A   Scattered Clouds
9:13 PM 41.7 °F 37.3 °F 31.3 °F 66% 30.25 in 10.0 mi West 6.9 mph - N/A   Mostly Cloudy
9:33 PM 42.1 °F 36.6 °F 31.3 °F 66% 30.25 in 10.0 mi NNW 9.2 mph - N/A   Overcast
9:53 PM 41.2 °F 36.0 °F 29.3 °F 63% 30.25 in 10.0 mi NNW 8.1 mph - N/A   Overcast
10:13 PM 41.2 °F 36.6 °F 28.2 °F 60% 30.25 in 10.0 mi NNW 6.9 mph - N/A   Overcast
10:34 PM 41.0 °F 34.7 °F 27.9 °F 60% 30.25 in 10.0 mi NNW 10.4 mph - N/A   Overcast
10:53 PM 40.8 °F 35.0 °F 27.9 °F 60% 30.25 in 10.0 mi NNW 9.2 mph - N/A   Overcast
11:13 PM 40.3 °F 34.4 °F 28.4 °F 63% 30.25 in 10.0 mi NNW 9.2 mph - N/A   Overcast
11:34 PM 40.1 °F 34.1 °F 28.2 °F 63% 30.25 in 10.0 mi NW 9.2 mph - N/A   Overcast